Time,TemperatureF,DewpointF,PressureIn,WindDirection,WindDirectionDegrees,WindSpeedMPH,WindSpeedGustMPH,Humidity,HourlyPrecipIn,Conditions,Clouds,dailyrainin,SoftwareType,DateUTC
2013-06-19 00:00:00,73.2,71.7,29.96,SE,133,1.0,5.0,95,0.00,,,0.00,Wunderground v.1.15,2013-06-19 05:00:00,
2013-06-19 00:05:00,73.2,72.0,29.96,SSE,155,2.0,5.0,96,0.00,,,0.00,Wunderground v.1.15,2013-06-19 05:05:00,
2013-06-19 00:15:00,73.2,71.7,29.96,SE,145,1.0,2.0,95,0.00,,,0.00,Wunderground v.1.15,2013-06-19 05:15:00,
2013-06-19 00:20:00,73.2,71.7,29.95,South,178,1.0,2.0,95,0.00,,,0.00,Wunderground v.1.15,2013-06-19 05:20:00,
2013-06-19 00:25:00,73.3,71.8,29.95,SE,142,2.0,2.0,95,0.00,,,0.00,Wunderground v.1.15,2013-06-19 05:25:00,
2013-06-19 00:30:00,73.3,71.8,29.95,SSE,162,2.0,2.0,95,0.00,,,0.00,Wunderground v.1.15,2013-06-19 05:30:00,
2013-06-19 00:40:00,73.5,72.0,29.95,SE,126,2.0,3.0,95,0.00,,,0.00,Wunderground v.1.15,2013-06-19 05:40:00,
2013-06-19 00:45:00,73.5,72.0,29.95,SSE,149,2.0,3.0,95,0.00,,,0.00,Wunderground v.1.15,2013-06-19 05:45:00,
2013-06-19 00:50:00,73.6,72.1,29.96,SSE,157,2.0,2.0,95,0.00,,,0.00,Wunderground v.1.15,2013-06-19 05:50:00,
2013-06-19 00:55:00,73.7,72.2,29.95,SE,143,2.0,2.0,95,0.00,,,0.00,Wunderground v.1.15,2013-06-19 05:55:00,
2013-06-19 01:00:00,73.8,72.0,29.96,SSE,154,1.0,1.0,94,0.00,,,0.00,Wunderground v.1.15,2013-06-19 06:00:00,
2013-06-19 01:05:00,73.9,72.1,29.96,SSE,151,1.0,2.0,94,0.00,,,0.00,Wunderground v.1.15,2013-06-19 06:05:00,
2013-06-19 01:15:00,74.0,72.2,29.95,South,169,2.0,3.0,94,0.00,,,0.00,Wunderground v.1.15,2013-06-19 06:15:00,
2013-06-19 01:20:00,74.0,72.2,29.95,SSE,148,2.0,3.0,94,0.00,,,0.00,Wunderground v.1.15,2013-06-19 06:20:00,
2013-06-19 01:25:00,74.0,72.2,29.95,SE,136,3.0,3.0,94,0.00,,,0.00,Wunderground v.1.15,2013-06-19 06:25:00,
2013-06-19 01:30:00,74.1,72.3,29.95,SSE,167,2.0,3.0,94,0.00,,,0.00,Wunderground v.1.15,2013-06-19 06:30:00,
2013-06-19 01:35:00,74.1,71.9,29.96,SE,143,2.0,3.0,93,0.00,,,0.00,Wunderground v.1.15,2013-06-19 06:35:00,
2013-06-19 01:45:00,74.2,72.0,29.95,SSE,164,2.0,3.0,93,0.00,,,0.00,Wunderground v.1.15,2013-06-19 06:45:00,
2013-06-19 01:50:00,74.2,72.0,29.96,ESE,113,2.0,2.0,93,0.00,,,0.00,Wunderground v.1.15,2013-06-19 06:50:00,
2013-06-19 01:55:00,74.2,72.0,29.95,SSE,155,2.0,3.0,93,0.00,,,0.00,Wunderground v.1.15,2013-06-19 06:55:00,
2013-06-19 02:00:00,74.3,72.1,29.95,SSE,155,1.0,3.0,93,0.00,,,0.00,Wunderground v.1.15,2013-06-19 07:00:00,
2013-06-19 02:05:00,74.3,72.1,29.95,SE,143,1.0,3.0,93,0.00,,,0.00,Wunderground v.1.15,2013-06-19 07:05:00,
2013-06-19 02:10:00,74.3,72.1,29.95,SE,124,1.0,3.0,93,0.00,,,0.00,Wunderground v.1.15,2013-06-19 07:10:00,
2013-06-19 02:15:00,74.3,72.1,29.95,SSE,158,1.0,3.0,93,0.00,,,0.00,Wunderground v.1.15,2013-06-19 07:15:00,
2013-06-19 02:20:00,74.2,72.0,29.95,SSE,155,1.0,1.0,93,0.00,,,0.00,Wunderground v.1.15,2013-06-19 07:20:00,
2013-06-19 02:25:00,74.2,72.0,29.95,SSE,150,1.0,3.0,93,0.00,,,0.00,Wunderground v.1.15,2013-06-19 07:25:00,
2013-06-19 02:30:00,74.0,71.8,29.95,ESE,110,1.0,1.0,93,0.00,,,0.00,Wunderground v.1.15,2013-06-19 07:30:00,
2013-06-19 02:35:00,73.9,71.7,29.95,ESE,103,0.0,3.0,93,0.00,,,0.00,Wunderground v.1.15,2013-06-19 07:35:00,
2013-06-19 02:40:00,73.8,71.6,29.95,ESE,103,0.0,3.0,93,0.00,,,0.00,Wunderground v.1.15,2013-06-19 07:40:00,
2013-06-19 02:50:00,73.6,71.8,29.95,ESE,104,0.0,3.0,94,0.00,,,0.00,Wunderground v.1.15,2013-06-19 07:50:00,
2013-06-19 02:55:00,73.6,71.8,29.95,ESE,103,0.0,3.0,94,0.00,,,0.00,Wunderground v.1.15,2013-06-19 07:55:00,
2013-06-19 03:00:00,73.7,71.9,29.94,ESE,103,0.0,3.0,94,0.00,,,0.00,Wunderground v.1.15,2013-06-19 08:00:00,
2013-06-19 03:05:00,73.7,71.9,29.95,ESE,103,0.0,3.0,94,0.00,,,0.00,Wunderground v.1.15,2013-06-19 08:05:00,
2013-06-19 03:10:00,73.8,72.0,29.95,NW,323,0.0,3.0,94,0.00,,,0.00,Wunderground v.1.15,2013-06-19 08:10:00,
2013-06-19 03:20:00,73.9,72.1,29.94,North,356,1.0,3.0,94,0.00,,,0.00,Wunderground v.1.15,2013-06-19 08:20:00,
2013-06-19 03:25:00,74.0,72.2,29.94,North,356,1.0,3.0,94,0.00,,,0.00,Wunderground v.1.15,2013-06-19 08:25:00,
2013-06-19 03:30:00,74.0,71.8,29.94,North,356,1.0,3.0,93,0.00,,,0.00,Wunderground v.1.15,2013-06-19 08:30:00,
2013-06-19 03:35:00,73.9,71.7,29.94,NNE,14,2.0,3.0,93,0.00,,,0.00,Wunderground v.1.15,2013-06-19 08:35:00,
2013-06-19 03:40:00,73.8,71.6,29.94,North,358,1.0,3.0,93,0.00,,,0.00,Wunderground v.1.15,2013-06-19 08:40:00,
2013-06-19 03:45:00,73.9,72.1,29.95,North,358,1.0,3.0,94,0.00,,,0.00,Wunderground v.1.15,2013-06-19 08:45:00,
2013-06-19 03:55:00,73.8,72.0,29.94,North,8,1.0,3.0,94,0.00,,,0.00,Wunderground v.1.15,2013-06-19 08:55:00,
2013-06-19 04:00:00,73.8,72.0,29.95,North,349,1.0,3.0,94,0.00,,,0.00,Wunderground v.1.15,2013-06-19 09:00:00,
2013-06-19 04:05:00,73.8,72.0,29.95,NNW,340,1.0,3.0,94,0.00,,,0.00,Wunderground v.1.15,2013-06-19 09:05:00,
2013-06-19 04:10:00,73.8,72.0,29.95,North,349,1.0,3.0,94,0.00,,,0.00,Wunderground v.1.15,2013-06-19 09:10:00,
2013-06-19 04:15:00,73.8,72.0,29.95,North,353,1.0,3.0,94,0.00,,,0.00,Wunderground v.1.15,2013-06-19 09:15:00,
2013-06-19 04:20:00,73.9,72.1,29.95,North,1,1.0,3.0,94,0.00,,,0.00,Wunderground v.1.15,2013-06-19 09:20:00,
2013-06-19 04:25:00,73.9,72.1,29.95,NNW,346,1.0,3.0,94,0.00,,,0.00,Wunderground v.1.15,2013-06-19 09:25:00,
2013-06-19 04:30:00,73.9,72.1,29.95,North,7,2.0,2.0,94,0.00,,,0.00,Wunderground v.1.15,2013-06-19 09:30:00,
2013-06-19 04:35:00,74.0,72.2,29.95,NNW,328,2.0,3.0,94,0.00,,,0.00,Wunderground v.1.15,2013-06-19 09:35:00,
2013-06-19 04:40:00,74.1,72.3,29.95,NW,319,1.0,3.0,94,0.00,,,0.00,Wunderground v.1.15,2013-06-19 09:40:00,
2013-06-19 04:45:00,74.1,72.3,29.95,NW,309,1.0,3.0,94,0.00,,,0.00,Wunderground v.1.15,2013-06-19 09:45:00,
2013-06-19 04:50:00,74.1,72.3,29.95,NW,311,1.0,3.0,94,0.00,,,0.00,Wunderground v.1.15,2013-06-19 09:50:00,
2013-06-19 05:00:00,74.2,72.4,29.95,North,354,1.0,3.0,94,0.00,,,0.00,Wunderground v.1.15,2013-06-19 10:00:00,
2013-06-19 05:05:00,74.2,72.4,29.95,NNW,330,1.0,3.0,94,0.00,,,0.00,Wunderground v.1.15,2013-06-19 10:05:00,
2013-06-19 05:10:00,74.2,72.7,29.95,NNW,335,1.0,3.0,95,0.00,,,0.00,Wunderground v.1.15,2013-06-19 10:10:00,
2013-06-19 05:15:00,74.2,72.7,29.95,North,6,1.0,3.0,95,0.00,,,0.00,Wunderground v.1.15,2013-06-19 10:15:00,
2013-06-19 05:20:00,74.1,72.6,29.95,North,354,1.0,3.0,95,0.00,,,0.00,Wunderground v.1.15,2013-06-19 10:20:00,
2013-06-19 05:30:00,74.2,72.7,29.95,North,355,0.0,3.0,95,0.00,,,0.00,Wunderground v.1.15,2013-06-19 10:30:00,
2013-06-19 05:35:00,74.2,72.7,29.95,North,354,0.0,3.0,95,0.00,,,0.00,Wunderground v.1.15,2013-06-19 10:35:00,
2013-06-19 05:40:00,74.1,72.6,29.96,North,354,0.0,3.0,95,0.00,,,0.00,Wunderground v.1.15,2013-06-19 10:40:00,
2013-06-19 05:45:00,74.1,72.6,29.96,North,354,0.0,3.0,95,0.00,,,0.00,Wunderground v.1.15,2013-06-19 10:45:00,
2013-06-19 05:50:00,74.1,72.6,29.96,North,358,0.0,3.0,95,0.00,,,0.00,Wunderground v.1.15,2013-06-19 10:50:00,
2013-06-19 05:55:00,74.1,72.6,29.96,North,359,0.0,3.0,95,0.00,,,0.00,Wunderground v.1.15,2013-06-19 10:55:00,
2013-06-19 06:05:00,74.1,72.6,29.96,North,359,0.0,3.0,95,0.00,,,0.00,Wunderground v.1.15,2013-06-19 11:05:00,
2013-06-19 06:10:00,74.1,72.6,29.96,NE,53,0.0,3.0,95,0.00,,,0.00,Wunderground v.1.15,2013-06-19 11:10:00,
2013-06-19 06:15:00,74.2,73.0,29.97,SE,138,0.0,3.0,96,0.00,,,0.00,Wunderground v.1.15,2013-06-19 11:15:00,
2013-06-19 06:20:00,74.2,73.0,29.97,SE,144,1.0,3.0,96,0.00,,,0.00,Wunderground v.1.15,2013-06-19 11:20:00,
2013-06-19 06:25:00,74.2,73.0,29.97,SSE,155,1.0,3.0,96,0.00,,,0.00,Wunderground v.1.15,2013-06-19 11:25:00,
2013-06-19 06:30:00,74.2,72.7,29.97,SE,146,1.0,3.0,95,0.00,,,0.00,Wunderground v.1.15,2013-06-19 11:30:00,
2013-06-19 06:40:00,74.2,73.0,29.98,SE,145,0.0,3.0,96,0.00,,,0.00,Wunderground v.1.15,2013-06-19 11:40:00,
2013-06-19 06:45:00,74.2,73.0,29.98,SE,145,0.0,3.0,96,0.00,,,0.00,Wunderground v.1.15,2013-06-19 11:45:00,
2013-06-19 06:50:00,74.2,73.0,29.98,SE,145,0.0,3.0,96,0.00,,,0.00,Wunderground v.1.15,2013-06-19 11:50:00,
2013-06-19 06:55:00,74.2,73.0,29.98,East,92,0.0,3.0,96,0.00,,,0.00,Wunderground v.1.15,2013-06-19 11:55:00,
2013-06-19 07:00:00,74.2,73.0,29.98,East,80,1.0,3.0,96,0.00,,,0.00,Wunderground v.1.15,2013-06-19 12:00:00,
2013-06-19 07:05:00,74.2,73.0,29.99,East,80,1.0,3.0,96,0.00,,,0.00,Wunderground v.1.15,2013-06-19 12:05:00,
2013-06-19 07:10:00,74.2,73.0,29.99,East,80,1.0,1.0,96,0.00,,,0.00,Wunderground v.1.15,2013-06-19 12:10:00,
2013-06-19 07:15:00,74.2,73.0,29.99,ESE,111,0.0,3.0,96,0.00,,,0.00,Wunderground v.1.15,2013-06-19 12:15:00,
2013-06-19 07:20:00,74.3,73.1,29.99,ESE,111,0.0,3.0,96,0.00,,,0.00,Wunderground v.1.15,2013-06-19 12:20:00,
2013-06-19 07:25:00,74.4,73.2,29.99,ENE,74,0.0,3.0,96,0.00,,,0.00,Wunderground v.1.15,2013-06-19 12:25:00,
2013-06-19 07:30:00,74.4,73.2,30.00,NE,50,0.0,3.0,96,0.00,,,0.00,Wunderground v.1.15,2013-06-19 12:30:00,
2013-06-19 07:40:00,74.5,73.0,30.00,NE,50,0.0,3.0,95,0.00,,,0.00,Wunderground v.1.15,2013-06-19 12:40:00,
2013-06-19 07:45:00,74.6,73.1,30.00,East,86,1.0,3.0,95,0.00,,,0.00,Wunderground v.1.15,2013-06-19 12:45:00,
2013-06-19 07:50:00,74.6,73.1,30.01,ENE,63,1.0,1.0,95,0.00,,,0.00,Wunderground v.1.15,2013-06-19 12:50:00,
2013-06-19 07:55:00,74.7,73.2,30.01,SW,229,1.0,3.0,95,0.00,,,0.00,Wunderground v.1.15,2013-06-19 12:55:00,
2013-06-19 08:00:00,74.9,73.7,30.01,ESE,103,1.0,4.0,96,4.84,,,0.10,Wunderground v.1.15,2013-06-19 13:00:00,
2013-06-19 08:10:00,74.6,73.4,30.01,ENE,60,2.0,2.0,96,0.10,,,0.15,Wunderground v.1.15,2013-06-19 13:10:00,
2013-06-19 08:15:00,74.5,73.3,30.01,NNE,27,1.0,3.0,96,0.07,,,0.15,Wunderground v.1.15,2013-06-19 13:15:00,
2013-06-19 08:20:00,74.6,73.4,30.00,NNE,27,2.0,3.0,96,0.05,,,0.15,Wunderground v.1.15,2013-06-19 13:20:00,
2013-06-19 08:25:00,74.7,73.8,30.00,NE,47,3.0,3.0,97,0.00,,,0.15,Wunderground v.1.15,2013-06-19 13:25:00,
2013-06-19 08:30:00,74.7,73.5,30.00,ENE,70,3.0,3.0,96,0.00,,,0.15,Wunderground v.1.15,2013-06-19 13:30:00,
2013-06-19 08:35:00,74.7,73.5,30.01,NNE,15,2.0,3.0,96,0.00,,,0.15,Wunderground v.1.15,2013-06-19 13:35:00,
2013-06-19 08:45:00,74.8,73.9,30.00,ENE,62,3.0,4.0,97,0.00,,,0.15,Wunderground v.1.15,2013-06-19 13:45:00,
2013-06-19 08:50:00,74.8,73.6,30.00,NE,41,3.0,3.0,96,0.00,,,0.15,Wunderground v.1.15,2013-06-19 13:50:00,
2013-06-19 08:55:00,75.0,74.1,30.00,NE,41,2.0,3.0,97,0.00,,,0.15,Wunderground v.1.15,2013-06-19 13:55:00,
2013-06-19 09:00:00,75.4,74.5,30.01,NNW,331,2.0,4.0,97,0.00,,,0.15,Wunderground v.1.15,2013-06-19 14:00:00,
2013-06-19 09:05:00,75.5,74.3,30.01,NNE,13,4.0,4.0,96,0.00,,,0.15,Wunderground v.1.15,2013-06-19 14:05:00,
2013-06-19 09:15:00,75.5,74.0,30.02,NNW,331,4.0,6.0,95,0.00,,,0.15,Wunderground v.1.15,2013-06-19 14:15:00,
2013-06-19 09:20:00,75.1,73.6,30.04,NNW,334,5.0,6.0,95,5.59,,,0.28,Wunderground v.1.15,2013-06-19 14:20:00,
2013-06-19 09:25:00,74.0,72.5,30.03,NNW,345,7.0,7.0,95,0.53,,,0.43,Wunderground v.1.15,2013-06-19 14:25:00,
2013-06-19 09:30:00,73.2,72.0,30.03,NNE,20,7.0,7.0,96,0.15,,,0.44,Wunderground v.1.15,2013-06-19 14:30:00,
2013-06-19 09:35:00,72.7,71.5,30.03,North,6,5.0,7.0,96,0.47,,,0.46,Wunderground v.1.15,2013-06-19 14:35:00,
2013-06-19 09:40:00,72.6,71.7,30.03,NW,318,3.0,3.0,97,0.24,,,0.48,Wunderground v.1.15,2013-06-19 14:40:00,
2013-06-19 09:50:00,72.1,71.2,30.02,West,264,1.0,3.0,97,0.23,,,0.52,Wunderground v.1.15,2013-06-19 14:50:00,
2013-06-19 09:55:00,72.3,71.4,30.02,SW,217,1.0,3.0,97,0.09,,,0.52,Wunderground v.1.15,2013-06-19 14:55:00,
2013-06-19 10:00:00,72.7,72.1,30.02,SW,219,1.0,1.0,98,0.05,,,0.52,Wunderground v.1.15,2013-06-19 15:00:00,
2013-06-19 10:05:00,72.9,72.3,30.02,NW,310,1.0,3.0,98,0.04,,,0.52,Wunderground v.1.15,2013-06-19 15:05:00,
2013-06-19 10:10:00,73.2,72.6,30.02,North,356,1.0,3.0,98,0.00,,,0.52,Wunderground v.1.15,2013-06-19 15:10:00,
2013-06-19 10:20:00,73.8,73.2,30.03,North,349,2.0,3.0,98,0.00,,,0.52,Wunderground v.1.15,2013-06-19 15:20:00,
2013-06-19 10:25:00,74.2,73.6,30.03,ENE,59,1.0,3.0,98,0.00,,,0.52,Wunderground v.1.15,2013-06-19 15:25:00,
2013-06-19 10:30:00,74.5,73.9,30.03,ENE,62,1.0,1.0,98,0.00,,,0.52,Wunderground v.1.15,2013-06-19 15:30:00,
2013-06-19 10:35:00,74.8,73.9,30.03,ENE,60,1.0,3.0,97,0.00,,,0.52,Wunderground v.1.15,2013-06-19 15:35:00,
2013-06-19 10:40:00,75.2,74.6,30.03,ENE,61,1.0,3.0,98,0.00,,,0.52,Wunderground v.1.15,2013-06-19 15:40:00,
2013-06-19 10:45:00,76.0,75.4,30.03,NW,304,1.0,3.0,98,0.00,,,0.52,Wunderground v.1.15,2013-06-19 15:45:00,
2013-06-19 10:55:00,76.4,74.5,30.03,North,358,3.0,3.0,94,0.00,,,0.52,Wunderground v.1.15,2013-06-19 15:55:00,
2013-06-19 11:00:00,77.0,75.1,30.03,North,360,3.0,3.0,94,0.00,,,0.52,Wunderground v.1.15,2013-06-19 16:00:00,
2013-06-19 11:05:00,77.5,75.6,30.04,North,354,3.0,3.0,94,0.00,,,0.52,Wunderground v.1.15,2013-06-19 16:05:00,
2013-06-19 11:10:00,77.8,75.0,30.04,WNW,282,3.0,3.0,91,0.00,,,0.52,Wunderground v.1.15,2013-06-19 16:10:00,
2013-06-19 11:15:00,78.3,74.8,30.04,North,352,3.0,3.0,89,0.00,,,0.52,Wunderground v.1.15,2013-06-19 16:15:00,
2013-06-19 11:20:00,78.2,74.7,30.04,WNW,291,2.0,2.0,89,0.00,,,0.52,Wunderground v.1.15,2013-06-19 16:20:00,
2013-06-19 11:25:00,78.7,75.5,30.04,WNW,296,2.0,3.0,90,0.00,,,0.52,Wunderground v.1.15,2013-06-19 16:25:00,
2013-06-19 11:30:00,79.0,75.1,30.04,NNE,33,2.0,3.0,88,0.00,,,0.52,Wunderground v.1.15,2013-06-19 16:30:00,
2013-06-19 11:35:00,79.1,75.2,30.04,North,352,2.0,4.0,88,0.00,,,0.52,Wunderground v.1.15,2013-06-19 16:35:00,
2013-06-19 11:40:00,78.9,75.4,30.04,NNW,340,2.0,3.0,89,0.00,,,0.52,Wunderground v.1.15,2013-06-19 16:40:00,
2013-06-19 11:45:00,79.0,74.8,30.04,North,352,3.0,5.0,87,0.00,,,0.52,Wunderground v.1.15,2013-06-19 16:45:00,
2013-06-19 11:55:00,79.2,75.3,30.04,NNE,33,2.0,4.0,88,0.00,,,0.52,Wunderground v.1.15,2013-06-19 16:55:00,
2013-06-19 12:00:00,79.8,75.2,30.04,ENE,68,2.0,2.0,86,0.00,,,0.52,Wunderground v.1.15,2013-06-19 17:00:00,
2013-06-19 12:05:00,81.0,76.4,30.03,SE,135,1.0,3.0,86,0.00,,,0.52,Wunderground v.1.15,2013-06-19 17:05:00,
2013-06-19 12:10:00,82.7,76.3,30.03,South,189,2.0,3.0,81,0.00,,,0.52,Wunderground v.1.15,2013-06-19 17:10:00,
2013-06-19 12:15:00,83.4,76.6,30.03,SSE,158,2.0,3.0,80,0.00,,,0.52,Wunderground v.1.15,2013-06-19 17:15:00,
2013-06-19 12:20:00,84.2,77.0,30.03,NW,311,2.0,2.0,79,0.00,,,0.52,Wunderground v.1.15,2013-06-19 17:20:00,
2013-06-19 12:30:00,82.4,75.2,30.03,NE,44,2.0,2.0,79,0.00,,,0.52,Wunderground v.1.15,2013-06-19 17:30:00,
2013-06-19 12:35:00,82.7,76.3,30.03,NNW,330,1.0,3.0,81,0.00,,,0.52,Wunderground v.1.15,2013-06-19 17:35:00,
2013-06-19 12:40:00,82.7,76.3,30.04,West,272,0.0,3.0,81,0.00,,,0.52,Wunderground v.1.15,2013-06-19 17:40:00,
2013-06-19 12:45:00,82.7,75.5,30.04,North,352,0.0,3.0,79,0.00,,,0.52,Wunderground v.1.15,2013-06-19 17:45:00,
2013-06-19 12:50:00,82.3,75.5,30.04,WNW,289,1.0,3.0,80,0.00,,,0.52,Wunderground v.1.15,2013-06-19 17:50:00,
2013-06-19 13:00:00,81.9,75.9,30.03,NE,44,2.0,2.0,82,0.00,,,0.52,Wunderground v.1.15,2013-06-19 18:00:00,
2013-06-19 13:05:00,82.5,75.7,30.03,NNE,29,2.0,3.0,80,0.00,,,0.52,Wunderground v.1.15,2013-06-19 18:05:00,
2013-06-19 13:10:00,83.3,76.5,30.02,ENE,68,2.0,3.0,80,0.00,,,0.52,Wunderground v.1.15,2013-06-19 18:10:00,
2013-06-19 13:15:00,84.4,77.6,30.02,SSE,165,2.0,3.0,80,0.00,,,0.52,Wunderground v.1.15,2013-06-19 18:15:00,
2013-06-19 13:20:00,84.4,76.8,30.02,SSE,154,3.0,3.0,78,0.00,,,0.52,Wunderground v.1.15,2013-06-19 18:20:00,
2013-06-19 13:25:00,84.4,76.4,30.01,SE,140,3.0,3.0,77,0.00,,,0.52,Wunderground v.1.15,2013-06-19 18:25:00,
2013-06-19 13:35:00,85.3,77.7,30.01,SSE,167,2.0,3.0,78,0.00,,,0.52,Wunderground v.1.15,2013-06-19 18:35:00,
2013-06-19 13:40:00,85.4,77.4,30.01,South,191,2.0,3.0,77,0.00,,,0.52,Wunderground v.1.15,2013-06-19 18:40:00,
2013-06-19 13:45:00,84.4,76.0,30.01,ESE,121,3.0,4.0,76,0.00,,,0.52,Wunderground v.1.15,2013-06-19 18:45:00,
2013-06-19 13:50:00,83.6,76.8,30.01,SE,142,2.0,3.0,80,0.00,,,0.52,Wunderground v.1.15,2013-06-19 18:50:00,
2013-06-19 13:55:00,83.4,76.2,30.01,East,94,2.0,3.0,79,0.00,,,0.52,Wunderground v.1.15,2013-06-19 18:55:00,
2013-06-19 14:05:00,83.7,76.1,30.01,ENE,60,3.0,3.0,78,0.00,,,0.52,Wunderground v.1.15,2013-06-19 19:05:00,
2013-06-19 14:10:00,83.5,76.3,30.00,ENE,61,3.0,3.0,79,0.00,,,0.52,Wunderground v.1.15,2013-06-19 19:10:00,
2013-06-19 14:15:00,83.3,75.7,30.00,NNE,25,3.0,3.0,78,0.00,,,0.52,Wunderground v.1.15,2013-06-19 19:15:00,
2013-06-19 14:20:00,83.3,75.3,30.00,East,86,3.0,3.0,77,0.00,,,0.52,Wunderground v.1.15,2013-06-19 19:20:00,
2013-06-19 14:25:00,82.9,74.9,30.00,ENE,66,2.0,3.0,77,0.00,,,0.52,Wunderground v.1.15,2013-06-19 19:25:00,
2013-06-19 14:30:00,82.7,75.1,30.00,SSE,157,2.0,2.0,78,0.00,,,0.52,Wunderground v.1.15,2013-06-19 19:30:00,
2013-06-19 14:40:00,85.9,76.6,30.00,South,176,1.0,3.0,74,0.00,,,0.52,Wunderground v.1.15,2013-06-19 19:40:00,
2013-06-19 14:45:00,87.0,76.5,30.00,WNW,293,1.0,3.0,71,0.00,,,0.52,Wunderground v.1.15,2013-06-19 19:45:00,
2013-06-19 14:50:00,87.6,77.5,30.00,SE,146,1.0,1.0,72,0.00,,,0.52,Wunderground v.1.15,2013-06-19 19:50:00,
2013-06-19 14:55:00,87.6,76.2,30.00,North,3,1.0,3.0,69,0.00,,,0.52,Wunderground v.1.15,2013-06-19 19:55:00,
2013-06-19 15:00:00,87.3,76.3,30.00,East,101,1.0,3.0,70,0.00,,,0.52,Wunderground v.1.15,2013-06-19 20:00:00,
2013-06-19 15:10:00,84.9,76.5,30.00,SE,144,4.0,4.0,76,0.00,,,0.52,Wunderground v.1.15,2013-06-19 20:10:00,
2013-06-19 15:15:00,85.1,76.7,30.00,SSW,212,3.0,4.0,76,0.00,,,0.52,Wunderground v.1.15,2013-06-19 20:15:00,
2013-06-19 15:20:00,85.6,77.2,30.00,ENE,69,1.0,3.0,76,0.00,,,0.52,Wunderground v.1.15,2013-06-19 20:20:00,
2013-06-19 15:25:00,85.0,76.6,29.99,North,358,2.0,3.0,76,0.00,,,0.52,Wunderground v.1.15,2013-06-19 20:25:00,
2013-06-19 15:30:00,85.1,75.9,29.99,North,357,2.0,2.0,74,0.00,,,0.52,Wunderground v.1.15,2013-06-19 20:30:00,
2013-06-19 15:35:00,86.1,76.8,29.99,SE,126,1.0,3.0,74,0.00,,,0.52,Wunderground v.1.15,2013-06-19 20:35:00,
2013-06-19 15:45:00,86.0,75.9,29.99,NW,310,1.0,3.0,72,0.00,,,0.52,Wunderground v.1.15,2013-06-19 20:45:00,
2013-06-19 15:50:00,86.1,76.0,29.99,NNW,333,1.0,3.0,72,0.00,,,0.52,Wunderground v.1.15,2013-06-19 20:50:00,
2013-06-19 15:55:00,85.6,75.5,29.99,North,354,2.0,3.0,72,0.00,,,0.52,Wunderground v.1.15,2013-06-19 20:55:00,
2013-06-19 16:00:00,85.4,75.3,29.99,NW,309,2.0,2.0,72,0.00,,,0.52,Wunderground v.1.15,2013-06-19 21:00:00,
2013-06-19 16:05:00,85.2,76.4,29.99,NNW,327,2.0,3.0,75,0.00,,,0.52,Wunderground v.1.15,2013-06-19 21:05:00,
2013-06-19 16:15:00,84.9,76.1,29.99,NW,320,3.0,3.0,75,0.00,,,0.52,Wunderground v.1.15,2013-06-19 21:15:00,
2013-06-19 16:20:00,84.8,76.4,29.99,NNW,333,3.0,3.0,76,0.00,,,0.52,Wunderground v.1.15,2013-06-19 21:20:00,
2013-06-19 16:25:00,84.9,75.3,29.99,NW,318,3.0,3.0,73,0.00,,,0.52,Wunderground v.1.15,2013-06-19 21:25:00,
2013-06-19 16:30:00,84.8,75.6,29.99,NNE,21,3.0,7.0,74,0.00,,,0.52,Wunderground v.1.15,2013-06-19 21:30:00,
2013-06-19 16:35:00,84.6,75.4,29.99,NNE,27,4.0,7.0,74,0.00,,,0.52,Wunderground v.1.15,2013-06-19 21:35:00,
2013-06-19 16:40:00,84.3,75.1,29.99,NNE,16,4.0,5.0,74,0.00,,,0.52,Wunderground v.1.15,2013-06-19 21:40:00,
2013-06-19 16:50:00,84.3,75.5,29.99,NNW,328,3.0,3.0,75,0.00,,,0.52,Wunderground v.1.15,2013-06-19 21:50:00,
2013-06-19 16:55:00,84.1,75.3,29.99,North,353,2.0,3.0,75,0.00,,,0.52,Wunderground v.1.15,2013-06-19 21:55:00,
2013-06-19 17:00:00,83.9,75.1,29.99,NNW,329,3.0,3.0,75,0.00,,,0.52,Wunderground v.1.15,2013-06-19 22:00:00,
2013-06-19 17:05:00,83.7,74.9,29.99,NW,308,4.0,4.0,75,0.00,,,0.52,Wunderground v.1.15,2013-06-19 22:05:00,
2013-06-19 17:10:00,83.5,74.7,29.99,North,352,4.0,4.0,75,0.00,,,0.52,Wunderground v.1.15,2013-06-19 22:10:00,
2013-06-19 17:20:00,83.3,74.9,29.99,NNE,23,3.0,4.0,76,0.00,,,0.52,Wunderground v.1.15,2013-06-19 22:20:00,
2013-06-19 17:25:00,83.1,74.4,29.99,NW,310,4.0,4.0,75,0.00,,,0.52,Wunderground v.1.15,2013-06-19 22:25:00,
2013-06-19 17:30:00,83.0,74.3,30.00,NW,322,3.0,4.0,75,0.00,,,0.52,Wunderground v.1.15,2013-06-19 22:30:00,
2013-06-19 17:35:00,82.8,74.5,29.99,NW,323,3.0,4.0,76,0.00,,,0.52,Wunderground v.1.15,2013-06-19 22:35:00,
2013-06-19 17:40:00,82.8,74.5,29.99,North,11,3.0,3.0,76,0.00,,,0.52,Wunderground v.1.15,2013-06-19 22:40:00,
2013-06-19 17:45:00,82.8,74.5,29.99,NNW,331,3.0,3.0,76,0.00,,,0.52,Wunderground v.1.15,2013-06-19 22:45:00,
2013-06-19 17:55:00,82.8,74.1,29.99,NNW,333,3.0,4.0,75,0.00,,,0.52,Wunderground v.1.15,2013-06-19 22:55:00,
2013-06-19 18:00:00,83.7,75.3,29.99,NNE,16,3.0,3.0,76,0.00,,,0.52,Wunderground v.1.15,2013-06-19 23:00:00,
2013-06-19 18:05:00,83.6,74.4,29.99,NW,321,2.0,3.0,74,0.00,,,0.52,Wunderground v.1.15,2013-06-19 23:05:00,
2013-06-19 18:10:00,83.6,75.2,29.98,NW,326,2.0,2.0,76,0.00,,,0.52,Wunderground v.1.15,2013-06-19 23:10:00,
2013-06-19 18:15:00,83.4,74.2,29.98,NNE,28,2.0,3.0,74,0.00,,,0.52,Wunderground v.1.15,2013-06-19 23:15:00,
2013-06-19 18:25:00,83.1,74.4,29.98,North,11,2.0,4.0,75,0.00,,,0.52,Wunderground v.1.15,2013-06-19 23:25:00,
2013-06-19 18:30:00,82.8,74.5,29.98,NNW,348,3.0,3.0,76,0.00,,,0.52,Wunderground v.1.15,2013-06-19 23:30:00,
2013-06-19 18:35:00,82.7,74.8,29.98,NNW,335,3.0,3.0,77,0.00,,,0.52,Wunderground v.1.15,2013-06-19 23:35:00,
2013-06-19 18:40:00,83.2,75.2,29.98,NNW,331,3.0,3.0,77,0.00,,,0.52,Wunderground v.1.15,2013-06-19 23:40:00,
2013-06-19 18:45:00,83.6,76.0,29.98,NNE,23,2.0,3.0,78,0.00,,,0.52,Wunderground v.1.15,2013-06-19 23:45:00,
2013-06-19 18:50:00,83.8,74.6,29.98,ENE,61,2.0,3.0,74,0.00,,,0.52,Wunderground v.1.15,2013-06-19 23:50:00,
2013-06-19 18:55:00,83.6,75.2,29.97,East,83,2.0,3.0,76,0.00,,,0.52,Wunderground v.1.15,2013-06-19 23:55:00,
2013-06-19 19:05:00,83.8,75.4,29.97,ESE,120,2.0,3.0,76,0.00,,,0.52,Wunderground v.1.15,2013-06-20 00:05:00,
2013-06-19 19:10:00,83.8,75.0,29.97,SSE,155,1.0,1.0,75,0.00,,,0.52,Wunderground v.1.15,2013-06-20 00:10:00,
2013-06-19 19:15:00,84.2,75.4,29.97,South,175,1.0,2.0,75,0.00,,,0.52,Wunderground v.1.15,2013-06-20 00:15:00,
2013-06-19 19:25:00,83.7,75.7,29.97,SE,140,2.0,3.0,77,0.00,,,0.52,Wunderground v.1.15,2013-06-20 00:25:00,
2013-06-19 19:30:00,83.6,75.6,29.97,SE,135,1.0,1.0,77,0.00,,,0.52,Wunderground v.1.15,2013-06-20 00:30:00,
2013-06-19 19:35:00,83.7,75.7,29.98,South,178,1.0,3.0,77,0.00,,,0.52,Wunderground v.1.15,2013-06-20 00:35:00,
2013-06-19 19:40:00,83.8,75.4,29.98,SE,144,1.0,3.0,76,0.00,,,0.52,Wunderground v.1.15,2013-06-20 00:40:00,
2013-06-19 19:45:00,83.2,75.6,29.98,ESE,104,1.0,3.0,78,0.00,,,0.52,Wunderground v.1.15,2013-06-20 00:45:00,
2013-06-19 19:50:00,82.7,75.5,29.98,ENE,75,1.0,3.0,79,0.00,,,0.52,Wunderground v.1.15,2013-06-20 00:50:00,
2013-06-19 20:00:00,81.7,75.3,29.99,NE,41,1.0,3.0,81,0.00,,,0.52,Wunderground v.1.15,2013-06-20 01:00:00,
2013-06-19 20:05:00,81.4,75.4,29.99,NE,40,1.0,3.0,82,0.00,,,0.52,Wunderground v.1.15,2013-06-20 01:05:00,
2013-06-19 20:10:00,81.2,75.2,29.99,NE,42,1.0,3.0,82,0.00,,,0.52,Wunderground v.1.15,2013-06-20 01:10:00,
2013-06-19 20:15:00,80.9,74.9,29.99,ESE,105,1.0,3.0,82,0.00,,,0.52,Wunderground v.1.15,2013-06-20 01:15:00,
2013-06-19 20:20:00,80.7,75.1,29.99,ESE,105,0.0,3.0,83,0.00,,,0.52,Wunderground v.1.15,2013-06-20 01:20:00,
2013-06-19 20:25:00,80.4,76.2,29.99,SE,132,0.0,3.0,87,0.00,,,0.52,Wunderground v.1.15,2013-06-20 01:25:00,
2013-06-19 20:35:00,79.3,75.4,29.99,SE,132,0.0,3.0,88,0.00,,,0.52,Wunderground v.1.15,2013-06-20 01:35:00,
2013-06-19 20:40:00,79.1,75.9,29.99,SE,132,0.0,3.0,90,0.00,,,0.52,Wunderground v.1.15,2013-06-20 01:40:00,
2013-06-19 20:45:00,78.8,75.6,29.99,SE,132,0.0,3.0,90,0.00,,,0.52,Wunderground v.1.15,2013-06-20 01:45:00,
2013-06-19 20:50:00,78.2,75.4,29.99,SE,132,0.0,3.0,91,0.00,,,0.52,Wunderground v.1.15,2013-06-20 01:50:00,
2013-06-19 20:55:00,78.0,75.2,29.99,SE,132,0.0,3.0,91,0.00,,,0.52,Wunderground v.1.15,2013-06-20 01:55:00,
2013-06-19 21:05:00,78.0,75.2,29.99,SE,132,0.0,3.0,91,0.00,,,0.52,Wunderground v.1.15,2013-06-20 02:05:00,
2013-06-19 21:10:00,78.0,75.5,29.99,SE,132,0.0,3.0,92,0.00,,,0.52,Wunderground v.1.15,2013-06-20 02:10:00,
2013-06-19 21:15:00,78.1,75.3,29.99,SE,132,0.0,3.0,91,0.00,,,0.52,Wunderground v.1.15,2013-06-20 02:15:00,
2013-06-19 21:20:00,78.1,75.3,30.00,SE,132,0.0,3.0,91,0.00,,,0.52,Wunderground v.1.15,2013-06-20 02:20:00,
2013-06-19 21:25:00,78.0,75.2,30.00,SE,132,0.0,3.0,91,0.00,,,0.52,Wunderground v.1.15,2013-06-20 02:25:00,
2013-06-19 21:30:00,78.1,75.6,30.00,SE,132,0.0,3.0,92,0.00,,,0.52,Wunderground v.1.15,2013-06-20 02:30:00,
2013-06-19 21:40:00,78.1,75.3,30.00,SE,132,0.0,3.0,91,0.00,,,0.52,Wunderground v.1.15,2013-06-20 02:40:00,
2013-06-19 21:45:00,78.0,75.2,30.01,SE,132,0.0,3.0,91,0.00,,,0.52,Wunderground v.1.15,2013-06-20 02:45:00,
2013-06-19 21:50:00,77.9,75.4,30.01,SE,133,0.0,3.0,92,0.00,,,0.52,Wunderground v.1.15,2013-06-20 02:50:00,
2013-06-19 21:55:00,77.5,75.3,30.01,SE,132,0.0,3.0,93,0.00,,,0.52,Wunderground v.1.15,2013-06-20 02:55:00,
2013-06-19 22:00:00,77.2,75.3,30.01,SE,125,1.0,3.0,94,0.00,,,0.52,Wunderground v.1.15,2013-06-20 03:00:00,
2013-06-19 22:10:00,76.6,74.7,30.01,SE,125,0.0,3.0,94,0.00,,,0.52,Wunderground v.1.15,2013-06-20 03:10:00,
2013-06-19 22:15:00,76.5,75.0,30.01,SE,125,0.0,3.0,95,0.00,,,0.52,Wunderground v.1.15,2013-06-20 03:15:00,
2013-06-19 22:20:00,76.5,75.0,30.01,SE,125,0.0,3.0,95,0.00,,,0.52,Wunderground v.1.15,2013-06-20 03:20:00,
2013-06-19 22:25:00,76.5,75.3,30.01,SE,125,0.0,3.0,96,0.00,,,0.52,Wunderground v.1.15,2013-06-20 03:25:00,
2013-06-19 22:30:00,76.6,75.4,30.01,SE,125,0.0,3.0,96,0.00,,,0.52,Wunderground v.1.15,2013-06-20 03:30:00,
2013-06-19 22:35:00,76.6,75.4,30.01,SE,125,0.0,3.0,96,0.00,,,0.52,Wunderground v.1.15,2013-06-20 03:35:00,
2013-06-19 22:40:00,76.7,75.5,30.01,SE,125,0.0,3.0,96,0.00,,,0.52,Wunderground v.1.15,2013-06-20 03:40:00,
2013-06-19 22:45:00,76.5,75.3,30.01,SE,125,0.0,3.0,96,0.00,,,0.52,Wunderground v.1.15,2013-06-20 03:45:00,
2013-06-19 22:50:00,76.4,75.2,30.01,SE,125,0.0,3.0,96,0.00,,,0.52,Wunderground v.1.15,2013-06-20 03:50:00,
2013-06-19 22:55:00,76.4,75.2,30.01,SE,125,0.0,3.0,96,0.00,,,0.52,Wunderground v.1.15,2013-06-20 03:55:00,
2013-06-19 23:00:00,76.3,75.1,30.02,SE,125,0.0,3.0,96,0.00,,,0.52,Wunderground v.1.15,2013-06-20 04:00:00,
2013-06-19 23:05:00,76.3,75.4,30.01,SE,125,0.0,3.0,97,0.00,,,0.52,Wunderground v.1.15,2013-06-20 04:05:00,
2013-06-19 23:10:00,76.2,75.0,30.01,SE,125,0.0,3.0,96,0.00,,,0.52,Wunderground v.1.15,2013-06-20 04:10:00,
2013-06-19 23:15:00,75.9,74.7,30.02,SE,125,0.0,3.0,96,0.00,,,0.52,Wunderground v.1.15,2013-06-20 04:15:00,
2013-06-19 23:20:00,75.8,74.9,30.02,SE,125,0.0,3.0,97,0.00,,,0.52,Wunderground v.1.15,2013-06-20 04:20:00,
2013-06-19 23:25:00,75.8,74.9,30.02,SE,125,0.0,3.0,97,0.00,,,0.52,Wunderground v.1.15,2013-06-20 04:25:00,
2013-06-19 23:30:00,75.8,74.9,30.02,SE,125,0.0,3.0,97,0.00,,,0.52,Wunderground v.1.15,2013-06-20 04:30:00,
2013-06-19 23:35:00,75.8,74.9,30.02,SE,125,0.0,3.0,97,0.00,,,0.52,Wunderground v.1.15,2013-06-20 04:35:00,
2013-06-19 23:45:00,75.9,75.0,30.02,SE,125,0.0,3.0,97,0.00,,,0.52,Wunderground v.1.15,2013-06-20 04:45:00,
2013-06-19 23:50:00,75.9,75.0,30.02,SE,125,0.0,3.0,97,0.00,,,0.52,Wunderground v.1.15,2013-06-20 04:50:00,
2013-06-19 23:55:00,75.9,75.0,30.02,SE,125,0.0,3.0,97,0.00,,,0.52,Wunderground v.1.15,2013-06-20 04:55:00,